Home > Time Zones > World Clock > Weather > Mali > Bamako > Past weeks

Flag for Mali Weather past 2 weeks in Bamako, Mali

Now
84 °F

Passing clouds.


Feels Like: 81 °F
Forecast: 66 / 91 °F
Wind: 10 mph from Northeast

Location: Bamako / Senou

Current Time: Dec 18, 2014 at 1:36:42 PM

Latest Report: Dec 18, 2014 at 1:00 PM


Visibility: N/A

Pressure: 29.98 "Hg

Humidity: 13%

Dew point: 28 °F

Location of BamakoLocation

Historic Weather in Bamako — Graph

°F

Bamako temperature yesterday

Maximum temperature yesterday: 90 °F (at 3:00 PM)
Minimum temperature yesterday: 64 °F (at 7:00 AM)
Average temperature yesterday: 76 °F

Past Weeks' High & Low Weather Summary

 TemperatureHumidityPressure
High99 °F (Dec 4, 3:00 PM)73% (Dec 6, 4:00 AM)30.09 "Hg (Dec 6, 4:00 AM)
Low50 °F (Dec 13, 3:30 AM)10% (Dec 6, 2:00 PM)29.83 "Hg (Dec 3, 3:00 PM)
Average78 °F25%29.97 "Hg
* Reported Dec 3 12:00 Noon — Dec 18 12:30 PM, Bamako, Weather by CustomWeather, © 2014

Note: Actual official high and low records may vary slightly from our data, if they occured in-between our weather recording intervals... More about our weather records

Advertising

Bamako weather history for previous 24 hours

 ConditionsComfort  
Time TempWeatherWind HumidityBarometerVisibility
12:30 PM
Dec 18
84 °FPassing clouds.9 mph12%30.01 "HgN/A
12:00 PM82 °FPassing clouds.9 mph14%30.01 "HgN/A
11:30 AM81 °FPassing clouds.10 mph14%30.04 "HgN/A
11:00 AM79 °FPassing clouds.13 mph16%30.04 "HgN/A
10:30 AM77 °FPassing clouds.13 mph15%30.04 "HgN/A
10:00 AM75 °FPassing clouds.14 mph16%30.07 "HgN/A
9:30 AM75 °FPassing clouds.15 mph15%30.04 "HgN/A
9:00 AM73 °FSunny.15 mph16%30.04 "Hg10 mi
8:30 AM72 °FSunny.15 mph17%30.04 "Hg10 mi
8:00 AM70 °FSunny.12 mph18%30.04 "Hg10 mi
7:30 AM70 °FSunny.10 mph18%30.01 "Hg10 mi
7:00 AM68 °FSunny.8 mph21%30.01 "Hg10 mi
6:30 AM70 °FClear.10 mph18%30.01 "Hg5 mi
6:00 AM70 °FClear.9 mph21%29.98 "Hg5 mi
5:00 AM66 °FClear.7 mph28%29.98 "Hg5 mi
4:30 AM66 °FClear.7 mph28%29.98 "Hg5 mi
3:30 AM70 °FClear.5 mph25%29.98 "Hg5 mi
2:30 AM68 °FClear.6 mph30%29.98 "Hg5 mi
2:00 AM68 °FClear.3 mph33%29.98 "Hg5 mi
1:30 AM70 °FClear.3 mph29%30.01 "Hg5 mi
1:00 AM72 °FClear.3 mph29%30.01 "Hg5 mi
12:30 AM72 °FClear.6 mph25%30.01 "Hg5 mi
12:00 AM72 °FClear.6 mph23%30.01 "Hg5 mi
11:30 PM
Dec 17
73 °FClear.7 mph22%30.01 "Hg5 mi
11:00 PM73 °FClear.7 mph20%30.04 "Hg5 mi
10:30 PM75 °FClear.6 mph21%30.04 "Hg5 mi
10:00 PM77 °FClear.6 mph19%30.04 "Hg5 mi
9:30 PM79 °FClear.6 mph17%30.04 "Hg5 mi
8:30 PM81 °FClear.7 mph16%30.01 "Hg5 mi
8:00 PM79 °FClear.7 mph17%29.98 "Hg10 mi
7:30 PM81 °FClear.7 mph17%29.98 "Hg10 mi
7:00 PM79 °FClear.7 mph20%29.98 "Hg10 mi
6:30 PM77 °FClear.5 mph21%29.95 "Hg10 mi
6:00 PM81 °FSunny.7 mph16%29.95 "Hg10 mi
5:30 PM86 °FSunny.7 mph12%29.95 "Hg10 mi
5:00 PM88 °FPassing clouds.7 mph11%29.95 "HgN/A
4:30 PM90 °FPassing clouds.8 mph12%29.95 "HgN/A
4:00 PM90 °FPassing clouds.7 mph12%29.95 "HgN/A
3:30 PM90 °FPassing clouds.8 mph11%29.95 "HgN/A
3:00 PM90 °FClear.9 mph12%29.95 "Hg5 mi
2:30 PM88 °FClear.8 mph11%29.95 "Hg5 mi
2:00 PM88 °FClear.7 mph13%29.98 "Hg5 mi
1:30 PM86 °FClear.8 mph14%29.98 "Hg5 mi
1:00 PM84 °FClear.8 mph14%30.01 "Hg5 mi
Weather by CustomWeather, © 2014

See weather overviewHow to use our weather pages